#datetime,building,power
2022-01-05T00:00:00,sdl,16.44
2022-01-05T00:01:00,sdl,16.85
2022-01-05T00:02:00,sdl,16.89
2022-01-05T00:03:00,sdl,16.88
2022-01-05T00:04:00,sdl,17.53
2022-01-05T00:05:00,sdl,16.14
2022-01-05T00:06:00,sdl,16.12
2022-01-05T00:07:00,sdl,13.70
2022-01-05T00:08:00,sdl,12.02
2022-01-05T00:09:00,sdl,12.06
2022-01-05T00:10:00,sdl,12.21
2022-01-05T00:11:00,sdl,14.44
2022-01-05T00:12:00,sdl,14.51
2022-01-05T00:13:00,sdl,14.53
2022-01-05T00:14:00,sdl,14.66
2022-01-05T00:15:00,sdl,14.55
2022-01-05T00:16:00,sdl,14.50
2022-01-05T00:17:00,sdl,14.52
2022-01-05T00:18:00,sdl,14.45
2022-01-05T00:19:00,sdl,14.40
2022-01-05T00:20:00,sdl,14.37
2022-01-05T00:21:00,sdl,14.40
2022-01-05T00:22:00,sdl,14.45
2022-01-05T00:23:00,sdl,14.43
2022-01-05T00:24:00,sdl,14.42
2022-01-05T00:25:00,sdl,14.46
2022-01-05T00:26:00,sdl,14.47
2022-01-05T00:27:00,sdl,14.46
2022-01-05T00:28:00,sdl,16.52
2022-01-05T00:29:00,sdl,16.47
2022-01-05T00:30:00,sdl,17.04
2022-01-05T00:31:00,sdl,16.43
2022-01-05T00:32:00,sdl,16.82
2022-01-05T00:33:00,sdl,16.45
2022-01-05T00:34:00,sdl,16.42
2022-01-05T00:35:00,sdl,16.75
2022-01-05T00:36:00,sdl,16.73
2022-01-05T00:37:00,sdl,16.33
2022-01-05T00:38:00,sdl,16.35
2022-01-05T00:39:00,sdl,12.26
2022-01-05T00:40:00,sdl,12.33
2022-01-05T00:41:00,sdl,13.50
2022-01-05T00:42:00,sdl,12.74
2022-01-05T00:43:00,sdl,12.58
2022-01-05T00:44:00,sdl,12.59
2022-01-05T00:45:00,sdl,12.58
2022-01-05T00:46:00,sdl,12.58
2022-01-05T00:47:00,sdl,12.56
2022-01-05T00:48:00,sdl,12.50
2022-01-05T00:49:00,sdl,12.48
2022-01-05T00:50:00,sdl,12.48
2022-01-05T00:51:00,sdl,12.55
2022-01-05T00:52:00,sdl,12.57
2022-01-05T00:53:00,sdl,12.54
2022-01-05T00:54:00,sdl,12.69
2022-01-05T00:55:00,sdl,12.71
2022-01-05T00:56:00,sdl,14.95
2022-01-05T00:57:00,sdl,14.90
2022-01-05T00:58:00,sdl,14.89
2022-01-05T00:59:00,sdl,18.99
2022-01-05T01:00:00,sdl,18.99
2022-01-05T01:01:00,sdl,19.02
2022-01-05T01:02:00,sdl,19.01
2022-01-05T01:03:00,sdl,18.99
2022-01-05T01:04:00,sdl,19.00
2022-01-05T01:05:00,sdl,19.40
2022-01-05T01:06:00,sdl,19.44
2022-01-05T01:07:00,sdl,19.11
2022-01-05T01:08:00,sdl,19.05
2022-01-05T01:09:00,sdl,16.37
2022-01-05T01:10:00,sdl,13.46
2022-01-05T01:11:00,sdl,12.25
2022-01-05T01:12:00,sdl,12.44
2022-01-05T01:13:00,sdl,12.50
2022-01-05T01:14:00,sdl,12.54
2022-01-05T01:15:00,sdl,12.49
2022-01-05T01:16:00,sdl,12.56
2022-01-05T01:17:00,sdl,13.28
2022-01-05T01:18:00,sdl,12.52
2022-01-05T01:19:00,sdl,12.44
2022-01-05T01:20:00,sdl,12.42
2022-01-05T01:21:00,sdl,12.52
2022-01-05T01:22:00,sdl,12.42
2022-01-05T01:23:00,sdl,15.17
2022-01-05T01:24:00,sdl,14.74
2022-01-05T01:25:00,sdl,14.71
2022-01-05T01:26:00,sdl,14.75
2022-01-05T01:27:00,sdl,14.69
2022-01-05T01:28:00,sdl,14.71
2022-01-05T01:29:00,sdl,14.77
2022-01-05T01:30:00,sdl,14.76
2022-01-05T01:31:00,sdl,18.90
2022-01-05T01:32:00,sdl,18.94
2022-01-05T01:33:00,sdl,18.79
2022-01-05T01:34:00,sdl,16.51
2022-01-05T01:35:00,sdl,16.82
2022-01-05T01:36:00,sdl,17.13
2022-01-05T01:37:00,sdl,16.81
2022-01-05T01:38:00,sdl,16.43
2022-01-05T01:39:00,sdl,16.43
2022-01-05T01:40:00,sdl,17.62
2022-01-05T01:41:00,sdl,16.38
2022-01-05T01:42:00,sdl,12.36
2022-01-05T01:43:00,sdl,12.25
2022-01-05T01:44:00,sdl,12.16
2022-01-05T01:45:00,sdl,12.16
2022-01-05T01:46:00,sdl,12.10
2022-01-05T01:47:00,sdl,12.05
2022-01-05T01:48:00,sdl,12.05
2022-01-05T01:49:00,sdl,12.06
2022-01-05T01:50:00,sdl,12.20
2022-01-05T01:51:00,sdl,12.57
2022-01-05T01:52:00,sdl,12.21
2022-01-05T01:53:00,sdl,12.76
2022-01-05T01:54:00,sdl,12.20
2022-01-05T01:55:00,sdl,12.26
2022-01-05T01:56:00,sdl,14.53
2022-01-05T01:57:00,sdl,14.80
2022-01-05T01:58:00,sdl,14.75
2022-01-05T01:59:00,sdl,14.76
2022-01-05T02:00:00,sdl,14.80
2022-01-05T02:01:00,sdl,14.81
2022-01-05T02:02:00,sdl,14.82
2022-01-05T02:03:00,sdl,19.01
2022-01-05T02:04:00,sdl,19.05
2022-01-05T02:05:00,sdl,18.99
2022-01-05T02:06:00,sdl,18.91
2022-01-05T02:07:00,sdl,19.44
2022-01-05T02:08:00,sdl,19.32
2022-01-05T02:09:00,sdl,18.99
2022-01-05T02:10:00,sdl,18.97
2022-01-05T02:11:00,sdl,19.00
2022-01-05T02:12:00,sdl,16.73
2022-01-05T02:13:00,sdl,16.63
2022-01-05T02:14:00,sdl,12.51
2022-01-05T02:15:00,sdl,12.52
2022-01-05T02:16:00,sdl,12.49
2022-01-05T02:17:00,sdl,12.55
2022-01-05T02:18:00,sdl,12.55
2022-01-05T02:19:00,sdl,12.55
2022-01-05T02:20:00,sdl,12.61
2022-01-05T02:21:00,sdl,12.60
2022-01-05T02:22:00,sdl,12.48
2022-01-05T02:23:00,sdl,12.15
2022-01-05T02:24:00,sdl,12.87
2022-01-05T02:25:00,sdl,12.17
2022-01-05T02:26:00,sdl,12.07
2022-01-05T02:27:00,sdl,12.20
2022-01-05T02:28:00,sdl,12.20
2022-01-05T02:29:00,sdl,12.18
2022-01-05T02:30:00,sdl,14.51
2022-01-05T02:31:00,sdl,14.58
2022-01-05T02:32:00,sdl,14.60
2022-01-05T02:33:00,sdl,15.37
2022-01-05T02:34:00,sdl,14.53
2022-01-05T02:35:00,sdl,19.13
2022-01-05T02:36:00,sdl,19.07
2022-01-05T02:37:00,sdl,18.75
2022-01-05T02:38:00,sdl,18.76
2022-01-05T02:39:00,sdl,16.41
2022-01-05T02:40:00,sdl,16.32
2022-01-05T02:41:00,sdl,16.35
2022-01-05T02:42:00,sdl,16.34
2022-01-05T02:43:00,sdl,16.34
2022-01-05T02:44:00,sdl,16.33
2022-01-05T02:45:00,sdl,17.06
2022-01-05T02:46:00,sdl,12.32
2022-01-05T02:47:00,sdl,12.33
2022-01-05T02:48:00,sdl,12.34
2022-01-05T02:49:00,sdl,12.26
2022-01-05T02:50:00,sdl,12.39
2022-01-05T02:51:00,sdl,12.30
2022-01-05T02:52:00,sdl,12.38
2022-01-05T02:53:00,sdl,14.49
2022-01-05T02:54:00,sdl,14.50
2022-01-05T02:55:00,sdl,14.47
2022-01-05T02:56:00,sdl,14.46
2022-01-05T02:57:00,sdl,14.44
2022-01-05T02:58:00,sdl,14.46
2022-01-05T02:59:00,sdl,14.59
2022-01-05T03:00:00,sdl,14.60
2022-01-05T03:01:00,sdl,14.65
2022-01-05T03:02:00,sdl,15.15
2022-01-05T03:03:00,sdl,15.01
2022-01-05T03:04:00,sdl,14.50
2022-01-05T03:05:00,sdl,14.55
2022-01-05T03:06:00,sdl,14.57
2022-01-05T03:07:00,sdl,19.95
2022-01-05T03:08:00,sdl,18.71
2022-01-05T03:09:00,sdl,18.66
2022-01-05T03:10:00,sdl,18.58
2022-01-05T03:11:00,sdl,16.33
2022-01-05T03:12:00,sdl,16.27
2022-01-05T03:13:00,sdl,16.79
2022-01-05T03:14:00,sdl,16.80
2022-01-05T03:15:00,sdl,16.84
2022-01-05T03:16:00,sdl,17.44
2022-01-05T03:17:00,sdl,16.70
2022-01-05T03:18:00,sdl,12.56
2022-01-05T03:19:00,sdl,12.53
2022-01-05T03:20:00,sdl,12.51
2022-01-05T03:21:00,sdl,12.58
2022-01-05T03:22:00,sdl,12.51
2022-01-05T03:23:00,sdl,12.46
2022-01-05T03:24:00,sdl,12.58
2022-01-05T03:25:00,sdl,12.55
2022-01-05T03:26:00,sdl,12.67
2022-01-05T03:27:00,sdl,12.67
2022-01-05T03:28:00,sdl,12.69
2022-01-05T03:29:00,sdl,12.62
2022-01-05T03:30:00,sdl,12.60
2022-01-05T03:31:00,sdl,12.92
2022-01-05T03:32:00,sdl,12.90
2022-01-05T03:33:00,sdl,12.51
2022-01-05T03:34:00,sdl,12.55
2022-01-05T03:35:00,sdl,12.48
2022-01-05T03:36:00,sdl,12.70
2022-01-05T03:37:00,sdl,12.73
2022-01-05T03:38:00,sdl,16.45
2022-01-05T03:39:00,sdl,18.68
2022-01-05T03:40:00,sdl,18.81
2022-01-05T03:41:00,sdl,18.83
2022-01-05T03:42:00,sdl,18.88
2022-01-05T03:43:00,sdl,18.83
2022-01-05T03:44:00,sdl,18.85
2022-01-05T03:45:00,sdl,18.84
2022-01-05T03:46:00,sdl,18.82
2022-01-05T03:47:00,sdl,18.72
2022-01-05T03:48:00,sdl,18.74
2022-01-05T03:49:00,sdl,18.69
2022-01-05T03:50:00,sdl,18.72
2022-01-05T03:51:00,sdl,19.29
2022-01-05T03:52:00,sdl,18.75
2022-01-05T03:53:00,sdl,16.50
2022-01-05T03:54:00,sdl,16.52
2022-01-05T03:55:00,sdl,16.49
2022-01-05T03:56:00,sdl,17.04
2022-01-05T03:57:00,sdl,16.39
2022-01-05T03:58:00,sdl,16.27
2022-01-05T03:59:00,sdl,16.29
2022-01-05T04:00:00,sdl,16.70
2022-01-05T04:01:00,sdl,16.70
2022-01-05T04:02:00,sdl,17.51
2022-01-05T04:03:00,sdl,16.33
2022-01-05T04:04:00,sdl,16.25
2022-01-05T04:05:00,sdl,16.29
2022-01-05T04:06:00,sdl,18.49
2022-01-05T04:07:00,sdl,18.53
2022-01-05T04:08:00,sdl,18.55
2022-01-05T04:09:00,sdl,18.51
2022-01-05T04:10:00,sdl,18.50
2022-01-05T04:11:00,sdl,18.49
2022-01-05T04:12:00,sdl,18.42
2022-01-05T04:13:00,sdl,18.41
2022-01-05T04:14:00,sdl,18.44
2022-01-05T04:15:00,sdl,18.39
2022-01-05T04:16:00,sdl,18.52
2022-01-05T04:17:00,sdl,18.43
2022-01-05T04:18:00,sdl,16.23
2022-01-05T04:19:00,sdl,16.35
2022-01-05T04:20:00,sdl,16.44
2022-01-05T04:21:00,sdl,16.42
2022-01-05T04:22:00,sdl,16.42
2022-01-05T04:23:00,sdl,16.44
2022-01-05T04:24:00,sdl,17.31
2022-01-05T04:25:00,sdl,16.45
2022-01-05T04:26:00,sdl,16.38
2022-01-05T04:27:00,sdl,18.62
2022-01-05T04:28:00,sdl,17.28
2022-01-05T04:29:00,sdl,16.56
2022-01-05T04:30:00,sdl,16.32
2022-01-05T04:31:00,sdl,17.03
2022-01-05T04:32:00,sdl,16.96
2022-01-05T04:33:00,sdl,17.20
2022-01-05T04:34:00,sdl,17.54
2022-01-05T04:35:00,sdl,16.97
2022-01-05T04:36:00,sdl,16.86
2022-01-05T04:37:00,sdl,16.93
2022-01-05T04:38:00,sdl,17.39
2022-01-05T04:39:00,sdl,16.87
2022-01-05T04:40:00,sdl,16.77
2022-01-05T04:41:00,sdl,19.17
2022-01-05T04:42:00,sdl,19.19
2022-01-05T04:43:00,sdl,19.20
2022-01-05T04:44:00,sdl,19.17
2022-01-05T04:45:00,sdl,19.19
2022-01-05T04:46:00,sdl,19.12
2022-01-05T04:47:00,sdl,19.07
2022-01-05T04:48:00,sdl,19.02
2022-01-05T04:49:00,sdl,19.11
2022-01-05T04:50:00,sdl,19.19
2022-01-05T04:51:00,sdl,19.26
2022-01-05T04:52:00,sdl,19.19
2022-01-05T04:53:00,sdl,19.21
2022-01-05T04:54:00,sdl,19.24
2022-01-05T04:55:00,sdl,19.24
2022-01-05T04:56:00,sdl,17.35
2022-01-05T04:57:00,sdl,16.98
2022-01-05T04:58:00,sdl,17.09
2022-01-05T04:59:00,sdl,16.61
2022-01-05T05:00:00,sdl,16.55
2022-01-05T05:01:00,sdl,16.58
2022-01-05T05:02:00,sdl,16.62
2022-01-05T05:03:00,sdl,16.52
2022-01-05T05:04:00,sdl,16.50
2022-01-05T05:05:00,sdl,16.44
2022-01-05T05:06:00,sdl,16.42
2022-01-05T05:07:00,sdl,16.38
2022-01-05T05:08:00,sdl,16.41
2022-01-05T05:09:00,sdl,16.44
2022-01-05T05:10:00,sdl,18.68
2022-01-05T05:11:00,sdl,18.51
2022-01-05T05:12:00,sdl,19.54
2022-01-05T05:13:00,sdl,18.48
2022-01-05T05:14:00,sdl,18.46
2022-01-05T05:15:00,sdl,18.45
2022-01-05T05:16:00,sdl,18.48
2022-01-05T05:17:00,sdl,19.00
2022-01-05T05:18:00,sdl,18.44
2022-01-05T05:19:00,sdl,18.40
2022-01-05T05:20:00,sdl,16.21
2022-01-05T05:21:00,sdl,16.18
2022-01-05T05:22:00,sdl,16.27
2022-01-05T05:23:00,sdl,16.29
2022-01-05T05:24:00,sdl,16.83
2022-01-05T05:25:00,sdl,16.16
2022-01-05T05:26:00,sdl,16.12
2022-01-05T05:27:00,sdl,16.08
2022-01-05T05:28:00,sdl,16.13
2022-01-05T05:29:00,sdl,16.13
2022-01-05T05:30:00,sdl,16.18
2022-01-05T05:31:00,sdl,16.17
2022-01-05T05:32:00,sdl,16.19
2022-01-05T05:33:00,sdl,16.62
2022-01-05T05:34:00,sdl,16.20
2022-01-05T05:35:00,sdl,16.17
2022-01-05T05:36:00,sdl,16.31
2022-01-05T05:37:00,sdl,16.30
2022-01-05T05:38:00,sdl,16.76
2022-01-05T05:39:00,sdl,16.23
2022-01-05T05:40:00,sdl,18.36
2022-01-05T05:41:00,sdl,18.37
2022-01-05T05:42:00,sdl,18.35
2022-01-05T05:43:00,sdl,18.33
2022-01-05T05:44:00,sdl,18.32
2022-01-05T05:45:00,sdl,18.31
2022-01-05T05:46:00,sdl,18.44
2022-01-05T05:47:00,sdl,18.86
2022-01-05T05:48:00,sdl,18.38
2022-01-05T05:49:00,sdl,18.29
2022-01-05T05:50:00,sdl,18.32
2022-01-05T05:51:00,sdl,18.37
2022-01-05T05:52:00,sdl,18.71
2022-01-05T05:53:00,sdl,18.69
2022-01-05T05:54:00,sdl,18.66
2022-01-05T05:55:00,sdl,18.63
2022-01-05T05:56:00,sdl,18.68
2022-01-05T05:57:00,sdl,18.84
2022-01-05T05:58:00,sdl,17.16
2022-01-05T05:59:00,sdl,16.65
2022-01-05T06:00:00,sdl,17.01
2022-01-05T06:01:00,sdl,17.32
2022-01-05T06:02:00,sdl,16.91
2022-01-05T06:03:00,sdl,16.89
2022-01-05T06:04:00,sdl,16.89
2022-01-05T06:05:00,sdl,16.78
2022-01-05T06:06:00,sdl,16.73
2022-01-05T06:07:00,sdl,16.80
2022-01-05T06:08:00,sdl,16.78
2022-01-05T06:09:00,sdl,16.73
2022-01-05T06:10:00,sdl,16.81
2022-01-05T06:11:00,sdl,16.90
2022-01-05T06:12:00,sdl,16.92
2022-01-05T06:13:00,sdl,17.00
2022-01-05T06:14:00,sdl,17.05
2022-01-05T06:15:00,sdl,17.05
2022-01-05T06:16:00,sdl,16.80
2022-01-05T06:17:00,sdl,17.62
2022-01-05T06:18:00,sdl,17.58
2022-01-05T06:19:00,sdl,19.68
2022-01-05T06:20:00,sdl,19.42
2022-01-05T06:21:00,sdl,19.42
2022-01-05T06:22:00,sdl,19.45
2022-01-05T06:23:00,sdl,19.46
2022-01-05T06:24:00,sdl,19.46
2022-01-05T06:25:00,sdl,19.65
2022-01-05T06:26:00,sdl,19.71
2022-01-05T06:27:00,sdl,19.89
2022-01-05T06:28:00,sdl,35.57
2022-01-05T06:29:00,sdl,19.55
2022-01-05T06:30:00,sdl,17.37
2022-01-05T06:31:00,sdl,17.26
2022-01-05T06:32:00,sdl,32.25
2022-01-05T06:33:00,sdl,28.00
2022-01-05T06:34:00,sdl,17.21
2022-01-05T06:35:00,sdl,17.23
2022-01-05T06:36:00,sdl,17.20
2022-01-05T06:37:00,sdl,17.27
2022-01-05T06:38:00,sdl,16.81
2022-01-05T06:39:00,sdl,16.79
2022-01-05T06:40:00,sdl,17.20
2022-01-05T06:41:00,sdl,17.73
2022-01-05T06:42:00,sdl,17.70
2022-01-05T06:43:00,sdl,19.25
2022-01-05T06:44:00,sdl,19.19
2022-01-05T06:45:00,sdl,19.28
2022-01-05T06:46:00,sdl,19.28
2022-01-05T06:47:00,sdl,19.25
2022-01-05T06:48:00,sdl,19.26
2022-01-05T06:49:00,sdl,30.16
2022-01-05T06:50:00,sdl,19.25
2022-01-05T06:51:00,sdl,19.42
2022-01-05T06:52:00,sdl,18.99
2022-01-05T06:53:00,sdl,18.95
2022-01-05T06:54:00,sdl,19.31
2022-01-05T06:55:00,sdl,19.23
2022-01-05T06:56:00,sdl,18.76
2022-01-05T06:57:00,sdl,19.19
2022-01-05T06:58:00,sdl,18.71
2022-01-05T06:59:00,sdl,33.15
2022-01-05T07:00:00,sdl,17.33
2022-01-05T07:01:00,sdl,17.33
2022-01-05T07:02:00,sdl,17.35
2022-01-05T07:03:00,sdl,32.48
2022-01-05T07:04:00,sdl,17.51
2022-01-05T07:05:00,sdl,28.63
2022-01-05T07:06:00,sdl,17.57
2022-01-05T07:07:00,sdl,17.59
2022-01-05T07:08:00,sdl,17.55
2022-01-05T07:09:00,sdl,17.57
2022-01-05T07:10:00,sdl,17.55
2022-01-05T07:11:00,sdl,17.23
2022-01-05T07:12:00,sdl,17.15
2022-01-05T07:13:00,sdl,17.78
2022-01-05T07:14:00,sdl,17.07
2022-01-05T07:15:00,sdl,17.14
2022-01-05T07:16:00,sdl,17.14
2022-01-05T07:17:00,sdl,17.21
2022-01-05T07:18:00,sdl,31.42
2022-01-05T07:19:00,sdl,17.26
2022-01-05T07:20:00,sdl,17.83
2022-01-05T07:21:00,sdl,17.74
2022-01-05T07:22:00,sdl,18.71
2022-01-05T07:23:00,sdl,18.65
2022-01-05T07:24:00,sdl,20.89
2022-01-05T07:25:00,sdl,20.51
2022-01-05T07:26:00,sdl,20.69
2022-01-05T07:27:00,sdl,20.65
2022-01-05T07:28:00,sdl,20.77
2022-01-05T07:29:00,sdl,20.90
2022-01-05T07:30:00,sdl,20.93
2022-01-05T07:31:00,sdl,20.77
2022-01-05T07:32:00,sdl,20.71
2022-01-05T07:33:00,sdl,20.72
2022-01-05T07:34:00,sdl,20.86
2022-01-05T07:35:00,sdl,20.78
2022-01-05T07:36:00,sdl,20.20
2022-01-05T07:37:00,sdl,19.93
2022-01-05T07:38:00,sdl,19.96
2022-01-05T07:39:00,sdl,19.95
2022-01-05T07:40:00,sdl,19.95
2022-01-05T07:41:00,sdl,19.82
2022-01-05T07:42:00,sdl,17.69
2022-01-05T07:43:00,sdl,17.66
2022-01-05T07:44:00,sdl,17.89
2022-01-05T07:45:00,sdl,31.31
2022-01-05T07:46:00,sdl,17.66
2022-01-05T07:47:00,sdl,17.63
2022-01-05T07:48:00,sdl,17.72
2022-01-05T07:49:00,sdl,29.66
2022-01-05T07:50:00,sdl,17.30
2022-01-05T07:51:00,sdl,18.12
2022-01-05T07:52:00,sdl,18.18
2022-01-05T07:53:00,sdl,18.52
2022-01-05T07:54:00,sdl,17.91
2022-01-05T07:55:00,sdl,18.10
2022-01-05T07:56:00,sdl,18.07
2022-01-05T07:57:00,sdl,20.26
2022-01-05T07:58:00,sdl,20.22
2022-01-05T07:59:00,sdl,20.25
2022-01-05T08:00:00,sdl,20.21
2022-01-05T08:01:00,sdl,20.36
2022-01-05T08:02:00,sdl,20.31
2022-01-05T08:03:00,sdl,20.84
2022-01-05T08:04:00,sdl,20.28
2022-01-05T08:05:00,sdl,21.45
2022-01-05T08:06:00,sdl,20.21
2022-01-05T08:07:00,sdl,18.17
2022-01-05T08:08:00,sdl,18.37
2022-01-05T08:09:00,sdl,17.86
2022-01-05T08:10:00,sdl,18.01
2022-01-05T08:11:00,sdl,18.02
2022-01-05T08:12:00,sdl,18.01
2022-01-05T08:13:00,sdl,18.00
2022-01-05T08:14:00,sdl,18.50
2022-01-05T08:15:00,sdl,17.94
2022-01-05T08:16:00,sdl,19.07
2022-01-05T08:17:00,sdl,17.87
2022-01-05T08:18:00,sdl,30.31
2022-01-05T08:19:00,sdl,18.15
2022-01-05T08:20:00,sdl,18.24
2022-01-05T08:21:00,sdl,20.91
2022-01-05T08:22:00,sdl,21.22
2022-01-05T08:23:00,sdl,20.73
2022-01-05T08:24:00,sdl,20.72
2022-01-05T08:25:00,sdl,21.39
2022-01-05T08:26:00,sdl,28.33
2022-01-05T08:27:00,sdl,20.92
2022-01-05T08:28:00,sdl,21.01
2022-01-05T08:29:00,sdl,20.60
2022-01-05T08:30:00,sdl,20.46
2022-01-05T08:31:00,sdl,20.37
2022-01-05T08:32:00,sdl,20.36
2022-01-05T08:33:00,sdl,20.36
2022-01-05T08:34:00,sdl,20.41
2022-01-05T08:35:00,sdl,21.14
2022-01-05T08:36:00,sdl,20.61
2022-01-05T08:37:00,sdl,20.62
2022-01-05T08:38:00,sdl,20.70
2022-01-05T08:39:00,sdl,20.64
2022-01-05T08:40:00,sdl,20.72
2022-01-05T08:41:00,sdl,20.65
2022-01-05T08:42:00,sdl,18.52
2022-01-05T08:43:00,sdl,18.49
2022-01-05T08:44:00,sdl,18.94
2022-01-05T08:45:00,sdl,18.60
2022-01-05T08:46:00,sdl,19.13
2022-01-05T08:47:00,sdl,19.16
2022-01-05T08:48:00,sdl,19.15
2022-01-05T08:49:00,sdl,19.15
2022-01-05T08:50:00,sdl,19.05
2022-01-05T08:51:00,sdl,19.05
2022-01-05T08:52:00,sdl,18.80
2022-01-05T08:53:00,sdl,19.15
2022-01-05T08:54:00,sdl,19.36
2022-01-05T08:55:00,sdl,19.15
2022-01-05T08:56:00,sdl,19.69
2022-01-05T08:57:00,sdl,20.07
2022-01-05T08:58:00,sdl,19.98
2022-01-05T08:59:00,sdl,20.56
2022-01-05T09:00:00,sdl,20.13
2022-01-05T09:01:00,sdl,20.18
2022-01-05T09:02:00,sdl,20.20
2022-01-05T09:03:00,sdl,22.30
2022-01-05T09:04:00,sdl,22.35
2022-01-05T09:05:00,sdl,21.90
2022-01-05T09:06:00,sdl,21.85
2022-01-05T09:07:00,sdl,21.79
2022-01-05T09:08:00,sdl,21.94
2022-01-05T09:09:00,sdl,22.07
2022-01-05T09:10:00,sdl,22.13
2022-01-05T09:11:00,sdl,22.12
2022-01-05T09:12:00,sdl,22.80
2022-01-05T09:13:00,sdl,22.20
2022-01-05T09:14:00,sdl,22.18
2022-01-05T09:15:00,sdl,22.02
2022-01-05T09:16:00,sdl,21.97
2022-01-05T09:17:00,sdl,22.09
2022-01-05T09:18:00,sdl,21.81
2022-01-05T09:19:00,sdl,23.64
2022-01-05T09:20:00,sdl,25.04
2022-01-05T09:21:00,sdl,23.56
2022-01-05T09:22:00,sdl,23.28
2022-01-05T09:23:00,sdl,23.23
2022-01-05T09:24:00,sdl,24.40
2022-01-05T09:25:00,sdl,23.31
2022-01-05T09:26:00,sdl,37.41
2022-01-05T09:27:00,sdl,23.05
2022-01-05T09:28:00,sdl,20.89
2022-01-05T09:29:00,sdl,20.96
2022-01-05T09:30:00,sdl,21.17
2022-01-05T09:31:00,sdl,21.26
2022-01-05T09:32:00,sdl,20.73
2022-01-05T09:33:00,sdl,20.87
2022-01-05T09:34:00,sdl,20.54
2022-01-05T09:35:00,sdl,20.93
2022-01-05T09:36:00,sdl,20.89
2022-01-05T09:37:00,sdl,21.08
2022-01-05T09:38:00,sdl,21.14
2022-01-05T09:39:00,sdl,21.18
2022-01-05T09:40:00,sdl,23.39
2022-01-05T09:41:00,sdl,23.33
2022-01-05T09:42:00,sdl,23.24
2022-01-05T09:43:00,sdl,23.35
2022-01-05T09:44:00,sdl,23.32
2022-01-05T09:45:00,sdl,23.27
2022-01-05T09:46:00,sdl,23.30
2022-01-05T09:47:00,sdl,23.32
2022-01-05T09:48:00,sdl,23.23
2022-01-05T09:49:00,sdl,23.38
2022-01-05T09:50:00,sdl,23.35
2022-01-05T09:51:00,sdl,24.63
2022-01-05T09:52:00,sdl,21.25
2022-01-05T09:53:00,sdl,21.22
2022-01-05T09:54:00,sdl,21.29
2022-01-05T09:55:00,sdl,21.16
2022-01-05T09:56:00,sdl,21.55
2022-01-05T09:57:00,sdl,21.49
2022-01-05T09:58:00,sdl,21.35
2022-01-05T09:59:00,sdl,21.19
2022-01-05T10:00:00,sdl,21.26
2022-01-05T10:01:00,sdl,21.30
2022-01-05T10:02:00,sdl,21.59
2022-01-05T10:03:00,sdl,21.48
2022-01-05T10:04:00,sdl,21.95
2022-01-05T10:05:00,sdl,24.61
2022-01-05T10:06:00,sdl,23.93
2022-01-05T10:07:00,sdl,23.83
2022-01-05T10:08:00,sdl,23.79
2022-01-05T10:09:00,sdl,23.42
2022-01-05T10:10:00,sdl,23.54
2022-01-05T10:11:00,sdl,23.41
2022-01-05T10:12:00,sdl,23.51
2022-01-05T10:13:00,sdl,23.48
2022-01-05T10:14:00,sdl,23.43
2022-01-05T10:15:00,sdl,24.64
2022-01-05T10:16:00,sdl,24.07
2022-01-05T10:17:00,sdl,24.06
2022-01-05T10:18:00,sdl,24.67
2022-01-05T10:19:00,sdl,23.98
2022-01-05T10:20:00,sdl,24.06
2022-01-05T10:21:00,sdl,24.56
2022-01-05T10:22:00,sdl,23.98
2022-01-05T10:23:00,sdl,23.89
2022-01-05T10:24:00,sdl,24.39
2022-01-05T10:25:00,sdl,24.33
2022-01-05T10:26:00,sdl,38.78
2022-01-05T10:27:00,sdl,35.40
2022-01-05T10:28:00,sdl,35.61
2022-01-05T10:29:00,sdl,40.97
2022-01-05T10:30:00,sdl,26.34
2022-01-05T10:31:00,sdl,26.77
2022-01-05T10:32:00,sdl,39.36
2022-01-05T10:33:00,sdl,24.62
2022-01-05T10:34:00,sdl,25.83
2022-01-05T10:35:00,sdl,24.61
2022-01-05T10:36:00,sdl,24.93
2022-01-05T10:37:00,sdl,25.71
2022-01-05T10:38:00,sdl,25.64
2022-01-05T10:39:00,sdl,24.85
2022-01-05T10:40:00,sdl,25.70
2022-01-05T10:41:00,sdl,26.25
2022-01-05T10:42:00,sdl,25.99
2022-01-05T10:43:00,sdl,25.05
2022-01-05T10:44:00,sdl,23.88
2022-01-05T10:45:00,sdl,25.30
2022-01-05T10:46:00,sdl,24.74
2022-01-05T10:47:00,sdl,24.95
2022-01-05T10:48:00,sdl,25.21
2022-01-05T10:49:00,sdl,24.62
2022-01-05T10:50:00,sdl,25.46
2022-01-05T10:51:00,sdl,25.63
2022-01-05T10:52:00,sdl,25.51
2022-01-05T10:53:00,sdl,25.51
2022-01-05T10:54:00,sdl,24.57
2022-01-05T10:55:00,sdl,24.68
2022-01-05T10:56:00,sdl,24.75
2022-01-05T10:57:00,sdl,24.53
2022-01-05T10:58:00,sdl,24.55
2022-01-05T10:59:00,sdl,24.55
2022-01-05T11:00:00,sdl,24.88
2022-01-05T11:01:00,sdl,31.68
2022-01-05T11:02:00,sdl,25.38
2022-01-05T11:03:00,sdl,25.55
2022-01-05T11:04:00,sdl,38.31
2022-01-05T11:05:00,sdl,25.35
2022-01-05T11:06:00,sdl,36.24
2022-01-05T11:07:00,sdl,24.61
2022-01-05T11:08:00,sdl,25.09
2022-01-05T11:09:00,sdl,24.04
2022-01-05T11:10:00,sdl,22.55
2022-01-05T11:11:00,sdl,22.61
2022-01-05T11:12:00,sdl,21.75
2022-01-05T11:13:00,sdl,34.94
2022-01-05T11:14:00,sdl,22.58
2022-01-05T11:15:00,sdl,22.50
2022-01-05T11:16:00,sdl,36.48
2022-01-05T11:17:00,sdl,23.86
2022-01-05T11:18:00,sdl,25.13
2022-01-05T11:19:00,sdl,24.95
2022-01-05T11:20:00,sdl,24.96
2022-01-05T11:21:00,sdl,32.54
2022-01-05T11:22:00,sdl,24.89
2022-01-05T11:23:00,sdl,25.04
2022-01-05T11:24:00,sdl,36.85
2022-01-05T11:25:00,sdl,28.34
2022-01-05T11:26:00,sdl,35.47
2022-01-05T11:27:00,sdl,25.01
2022-01-05T11:28:00,sdl,24.96
2022-01-05T11:29:00,sdl,24.95
2022-01-05T11:30:00,sdl,36.45
2022-01-05T11:31:00,sdl,24.50
2022-01-05T11:32:00,sdl,24.08
2022-01-05T11:33:00,sdl,23.40
2022-01-05T11:34:00,sdl,23.35
2022-01-05T11:35:00,sdl,23.82
2022-01-05T11:36:00,sdl,23.99
2022-01-05T11:37:00,sdl,23.99
2022-01-05T11:38:00,sdl,24.58
2022-01-05T11:39:00,sdl,26.22
2022-01-05T11:40:00,sdl,37.54
2022-01-05T11:41:00,sdl,24.77
2022-01-05T11:42:00,sdl,24.61
2022-01-05T11:43:00,sdl,23.94
2022-01-05T11:44:00,sdl,25.31
2022-01-05T11:45:00,sdl,26.33
2022-01-05T11:46:00,sdl,25.56
2022-01-05T11:47:00,sdl,24.18
2022-01-05T11:48:00,sdl,23.98
2022-01-05T11:49:00,sdl,24.12
2022-01-05T11:50:00,sdl,24.12
2022-01-05T11:51:00,sdl,24.08
2022-01-05T11:52:00,sdl,24.03
2022-01-05T11:53:00,sdl,23.47
2022-01-05T11:54:00,sdl,24.12
2022-01-05T11:55:00,sdl,26.57
2022-01-05T11:56:00,sdl,26.05
2022-01-05T11:57:00,sdl,26.77
2022-01-05T11:58:00,sdl,24.37
2022-01-05T11:59:00,sdl,24.75
2022-01-05T12:00:00,sdl,24.43
2022-01-05T12:01:00,sdl,24.35
2022-01-05T12:02:00,sdl,25.95
2022-01-05T12:03:00,sdl,25.88
2022-01-05T12:04:00,sdl,26.17
2022-01-05T12:05:00,sdl,24.94
2022-01-05T12:06:00,sdl,27.12
2022-01-05T12:07:00,sdl,26.34
2022-01-05T12:08:00,sdl,23.94
2022-01-05T12:09:00,sdl,25.25
2022-01-05T12:10:00,sdl,24.86
2022-01-05T12:11:00,sdl,24.28
2022-01-05T12:12:00,sdl,24.24
2022-01-05T12:13:00,sdl,24.43
2022-01-05T12:14:00,sdl,24.83
2022-01-05T12:15:00,sdl,25.23
2022-01-05T12:16:00,sdl,26.13
2022-01-05T12:17:00,sdl,26.09
2022-01-05T12:18:00,sdl,24.34
2022-01-05T12:19:00,sdl,24.11
2022-01-05T12:20:00,sdl,24.10
2022-01-05T12:21:00,sdl,24.06
2022-01-05T12:22:00,sdl,24.53
2022-01-05T12:23:00,sdl,24.16
2022-01-05T12:24:00,sdl,25.66
2022-01-05T12:25:00,sdl,25.53
2022-01-05T12:26:00,sdl,25.08
2022-01-05T12:27:00,sdl,25.00
2022-01-05T12:28:00,sdl,25.67
2022-01-05T12:29:00,sdl,24.26
2022-01-05T12:30:00,sdl,25.32
2022-01-05T12:31:00,sdl,26.13
2022-01-05T12:32:00,sdl,25.07
2022-01-05T12:33:00,sdl,25.45
2022-01-05T12:34:00,sdl,24.17
2022-01-05T12:35:00,sdl,25.15
2022-01-05T12:36:00,sdl,25.28
2022-01-05T12:37:00,sdl,25.64
2022-01-05T12:38:00,sdl,25.62
2022-01-05T12:39:00,sdl,25.56
2022-01-05T12:40:00,sdl,26.60
2022-01-05T12:41:00,sdl,25.57
2022-01-05T12:42:00,sdl,23.18
2022-01-05T12:43:00,sdl,23.86
2022-01-05T12:44:00,sdl,23.72
2022-01-05T12:45:00,sdl,21.87
2022-01-05T12:46:00,sdl,21.82
2022-01-05T12:47:00,sdl,23.07
2022-01-05T12:48:00,sdl,22.84
2022-01-05T12:49:00,sdl,24.23
2022-01-05T12:50:00,sdl,24.10
2022-01-05T12:51:00,sdl,24.76
2022-01-05T12:52:00,sdl,24.52
2022-01-05T12:53:00,sdl,23.44
2022-01-05T12:54:00,sdl,23.46
2022-01-05T12:55:00,sdl,22.03
2022-01-05T12:56:00,sdl,21.92
2022-01-05T12:57:00,sdl,21.94
2022-01-05T12:58:00,sdl,24.60
2022-01-05T12:59:00,sdl,24.14
2022-01-05T13:00:00,sdl,23.23
2022-01-05T13:01:00,sdl,23.19
2022-01-05T13:02:00,sdl,23.29
2022-01-05T13:03:00,sdl,23.23
2022-01-05T13:04:00,sdl,24.25
2022-01-05T13:05:00,sdl,24.20
2022-01-05T13:06:00,sdl,24.28
2022-01-05T13:07:00,sdl,24.20
2022-01-05T13:08:00,sdl,24.53
2022-01-05T13:09:00,sdl,24.02
2022-01-05T13:10:00,sdl,24.84
2022-01-05T13:11:00,sdl,34.91
2022-01-05T13:12:00,sdl,36.44
2022-01-05T13:13:00,sdl,29.83
2022-01-05T13:14:00,sdl,23.51
2022-01-05T13:15:00,sdl,24.43
2022-01-05T13:16:00,sdl,37.49
2022-01-05T13:17:00,sdl,23.70
2022-01-05T13:18:00,sdl,23.78